Location: *
(46.1200°N, 11.2700°E)
Time: 15:56:04
(UTC+00:00)

COSMOS 2428 - Pass Details

Date: 02 March 2021
Orbit: 845 x 858 km, 70.9° (Epoch: 19 April)

Event Time Altitude Azimuth Distance (km) Brightness Sun altitude
Rises 19:28:33 0° 195° (SSW) 3,390 5.8 -25.8°
Reaches altitude 10° 19:31:00 10° 193° (SSW) 2,460 5.0 -26.2°
Enters shadow 19:32:40 20° 189° (S) 1,852 4.3 -26.4°
